Voltar ao catálogo

STARLINK-31401

AtivoComunicaçõesVLEO
NORAD 59417·PAYLOAD·🇺🇸 United States

Lançado Apr 5, 2024 de Cape Canaveral Space Force Station

Loading…

Próximas Passagens (próximas 24 horas)

TLE

AtualizadoSource: CelesTrak SupGP

Época: Sep 15, 2026, 02:29 UTC

1 59417C 24064V   26258.10395833 -.00022732  00000+0 -82347-3 0  2589
2 59417  43.0040  59.5473 0001480 270.8934 104.6089 15.27584281    10

Acompanhe STARLINK-31401 em tempo real com AllMySat

Download on the App Store